Location: Mizzole
(45.4833°N, 11.0500°E)
Time: 22:14:39
(UTC+00:00)

Lacrosse 5 - Pass Details

Date: 21 October 2019
Orbit: 715 x 724 km, 57.0° (Epoch: 27 October)

Event Time Altitude Azimuth Distance (km) Brightness Sun altitude
Rises 18:18:05 0° 308° (NW) 3,124 6.1 -21.2°
Reaches altitude 10° 18:20:30 10° 304° (NW) 2,200 5.3 -21.7°
Maximum altitude 18:25:27 56° 227° (SW) 848 2.3 -22.5°
Enters shadow 18:27:30 33° 165° (SSE) 1,199 2.8 -22.9°
